Back to catalog

CZ-6A DEB

AliveSSO
NORAD 54935·DEBRIS·🇨🇳 China

Launched Nov 11, 2022 from Taiyuan Satellite Launch Center

Loading…

Next Passes (next 24 hours)

TLE

FreshSource: Space-Track

Epoch: Sep 14, 2026, 01:15 UTC

1 54935U 22151RY  26257.05216426  .00002033  00000-0  74951-3 0  9992
2 54935  98.7278 283.3023 0006561 101.5263 258.6658 14.33630289199352

Track CZ-6A DEB in real time with AllMySat

Download on the App Store